Weather History for Hot Springs, VA

Change the Weather History Date:

Tuesday, March 19, 2013

  Actual Average Record
Temperature  
Mean Temperature 35 °F -  
Max Temperature 42 °F 43 °F 66 °F (2012)
Min Temperature 28 °F 27 °F 19 °F (2006)
Degree Days  
Heating Degree Days 30    
Moisture  
Dew Point 23 °F    
Average Humidity 67    
Maximum Humidity 100    
Minimum Humidity 24    
Precipitation  
Precipitation 0.00 in - - ()
Sea Level Pressure  
Sea Level Pressure 29.82 in    
Wind  
Wind Speed 20 mph (West)    
Max Wind Speed 33 mph    
Max Gust Speed 59 mph    
Visibility 8 miles    
Events Fog , Rain , Snow    
Averages and records for this station are not official NWS values.
T = Trace of Precipitation, MM = Missing Value Source: NWS Daily Summary

Daily Weather History Graph

Daily Weather History Graph

Search for Another Location

Airport:

Trip Planner

Search our weather history database for the weather conditions in past years. The results will help you decide how hot, cold, wet, or windy it might be!

Date:

Astronomy

Mar. 19, 2013 Rise Set
Actual Time 7:24 AM EDT 7:30 PM EDT
Civil Twilight 6:57 AM EDT 7:56 PM EDT
Nautical Twilight 6:27 AM EDT 8:27 PM EDT
Astronomical Twilight 5:56 AM EDT 8:58 PM EDT
Moon 12:18 PM EDT (3/19) 2:10 AM EDT (3/19)
Length of Visible Light 12h 58m
Length of Day
12h 06m
Waxing Crescent, 49% of the Moon is Illuminated
Mar 19
Waxing Crescent
Mar 19
First Quarter
Mar 27
Full
Apr 3
Last Quarter
Apr 10
New

Hourly Weather History & Observations

Time (EDT) Temp. Windchill Dew Point Humidity Pressure Visibility Wind Dir Wind Speed Gust Speed Precip Events Conditions
12:15 AM 37.4 °F 28.5 °F 37.4 °F 100% 29.82 in 10.0 mi SW 15.0 mph - N/A   Overcast
12:35 AM 37.4 °F 28.5 °F 37.4 °F 100% 29.81 in 10.0 mi SW 15.0 mph - N/A   Overcast
12:55 AM 39.2 °F 30.8 °F 39.2 °F 100% 29.81 in 10.0 mi WSW 15.0 mph - N/A   Overcast
1:15 AM 39.2 °F 29.8 °F 37.4 °F 93% 29.81 in 10.0 mi WSW 18.4 mph 21.9 mph N/A   Overcast
1:35 AM 39.2 °F 29.8 °F 39.2 °F 100% 29.80 in 10.0 mi WSW 18.4 mph - N/A   Overcast
1:55 AM 39.2 °F 29.8 °F 39.2 °F 100% 29.80 in 10.0 mi WSW 18.4 mph 23.0 mph N/A   Overcast
2:15 AM 41.0 °F 32.5 °F 39.2 °F 93% 29.79 in 10.0 mi WSW 17.3 mph 26.5 mph N/A   Overcast
2:35 AM 39.2 °F 30.2 °F 39.2 °F 100% 29.77 in 10.0 mi WSW 17.3 mph 24.2 mph N/A   Mostly Cloudy
2:55 AM 39.2 °F 29.6 °F 39.2 °F 100% 29.78 in 10.0 mi WSW 19.6 mph 25.3 mph N/A   Mostly Cloudy
3:15 AM 39.2 °F 29.8 °F 39.2 °F 100% 29.77 in 10.0 mi WSW 18.4 mph 27.6 mph N/A   Overcast
3:35 AM 39.2 °F 29.8 °F 39.2 °F 100% 29.77 in 10.0 mi WSW 18.4 mph - N/A   Overcast
3:55 AM 37.4 °F 27.8 °F 37.4 °F 100% 29.76 in 10.0 mi West 17.3 mph - N/A   Overcast
4:15 AM 35.6 °F 26.6 °F 35.6 °F 100% 29.75 in 0.2 mi West 13.8 mph - N/A Fog Fog
4:35 AM 35.6 °F 25.9 °F 35.6 °F 100% 29.75 in 0.2 mi West 16.1 mph - N/A Rain Light Rain
4:55 AM 37.4 °F 27.2 °F 37.4 °F 100% 29.75 in 0.2 mi West 19.6 mph 24.2 mph N/A Rain Light Rain
5:15 AM 35.6 °F 24.5 °F 35.6 °F 100% 29.75 in 0.2 mi West 20.7 mph 26.5 mph N/A Snow Light Snow
5:35 AM 35.6 °F 25.5 °F 35.6 °F 100% 29.75 in 0.2 mi West 17.3 mph 26.5 mph N/A Snow Light Snow
5:55 AM 37.4 °F 26.9 °F 37.4 °F 100% 29.75 in 0.2 mi West 20.7 mph 27.6 mph N/A Snow Light Snow
6:15 AM 35.6 °F 24.2 °F 35.6 °F 100% 29.76 in 0.2 mi West 21.9 mph 27.6 mph N/A Snow Light Snow
6:35 AM 35.6 °F 24.0 °F 35.6 °F 100% 29.77 in 0.2 mi WNW 23.0 mph 28.8 mph N/A Snow Light Snow
6:55 AM 33.8 °F 21.6 °F 33.8 °F 100% 29.78 in 0.2 mi West 23.0 mph 31.1 mph N/A Snow Light Snow
7:15 AM 33.8 °F 20.8 °F 33.8 °F 100% 29.78 in 0.2 mi West 26.5 mph 34.5 mph N/A Snow Light Snow
7:35 AM 33.8 °F 20.8 °F 33.8 °F 100% 29.79 in 0.2 mi West 26.5 mph 32.2 mph N/A Snow Light Snow
7:55 AM 32.0 °F 18.4 °F 32.0 °F 100% 29.79 in 3.0 mi West 26.5 mph 38.0 mph N/A Snow Light Snow
8:15 AM 32.0 °F 19.2 °F 32.0 °F 100% 29.80 in 10.0 mi WNW 23.0 mph 35.7 mph N/A   Overcast
8:35 AM 30.2 °F 15.7 °F 30.2 °F 100% 29.82 in 10.0 mi WNW 27.6 mph 35.7 mph N/A   Mostly Cloudy
8:55 AM 30.2 °F 15.9 °F 30.2 °F 100% 29.84 in 10.0 mi WNW 26.5 mph 38.0 mph N/A   Scattered Clouds
9:15 AM 30.2 °F 14.9 °F 28.4 °F 93% 29.84 in 10.0 mi West 31.1 mph 36.8 mph N/A   Scattered Clouds
9:35 AM 30.2 °F 16.2 °F 26.6 °F 86% 29.84 in 10.0 mi West 25.3 mph 32.2 mph N/A   Scattered Clouds
9:55 AM 30.2 °F 16.8 °F 26.6 °F 86% 29.82 in 10.0 mi West 23.0 mph 35.7 mph N/A   Unknown
10:15 AM 30.2 °F 17.1 °F 26.6 °F 86% 29.82 in 10.0 mi West 21.9 mph 32.2 mph N/A   Scattered Clouds
10:35 AM 30.2 °F 17.8 °F 26.6 °F 86% 29.83 in 10.0 mi West 19.6 mph 31.1 mph N/A   Clear
10:55 AM 32.0 °F 18.9 °F 26.6 °F 80% 29.82 in 10.0 mi West 24.2 mph 29.9 mph N/A   Clear
11:15 AM 33.8 °F 22.5 °F 26.6 °F 75% 29.83 in 10.0 mi West 19.6 mph 27.6 mph N/A   Clear
11:35 AM 35.6 °F 24.8 °F 28.4 °F 75% 29.84 in 10.0 mi West 19.6 mph 25.3 mph N/A   Clear
11:55 AM 35.6 °F 24.0 °F 26.6 °F 70% 29.84 in 10.0 mi WSW 23.0 mph 31.1 mph N/A   Clear
12:15 PM 35.6 °F 25.2 °F 24.8 °F 65% 29.84 in 10.0 mi West 18.4 mph 28.8 mph N/A   Clear
12:35 PM 37.4 °F 26.4 °F 24.8 °F 60% 29.83 in 10.0 mi West 23.0 mph 31.1 mph N/A   Clear
12:55 PM 37.4 °F 27.5 °F 23.0 °F 56% 29.82 in 10.0 mi WSW 18.4 mph 35.7 mph N/A   Clear
1:15 PM 39.2 °F 30.5 °F 23.0 °F 52% 29.82 in 10.0 mi West 16.1 mph 31.1 mph N/A   Clear
1:35 PM 39.2 °F 29.6 °F 23.0 °F 52% 29.81 in 10.0 mi West 19.6 mph 31.1 mph N/A   Clear
2:15 PM 41.0 °F 31.6 °F 23.0 °F 49% 29.78 in 10.0 mi WSW 20.7 mph 31.1 mph N/A   Clear
2:35 PM 42.8 °F 34.8 °F 23.0 °F 46% 29.79 in 10.0 mi West 17.3 mph 25.3 mph N/A   Clear
2:55 PM 42.8 °F 32.3 °F 19.4 °F 39% 29.79 in 10.0 mi West 29.9 mph 43.7 mph N/A   Clear
3:15 PM 42.8 °F 34.3 °F 21.2 °F 42% 29.79 in 10.0 mi West 19.6 mph 38.0 mph N/A   Scattered Clouds
3:35 PM 42.8 °F 32.3 °F 15.8 °F 34% 29.79 in 10.0 mi West 29.9 mph 44.9 mph N/A   Scattered Clouds
3:55 PM 42.8 °F 33.8 °F 17.6 °F 36% 29.79 in 10.0 mi West 21.9 mph 40.3 mph N/A   Clear
4:15 PM 42.8 °F 33.5 °F 15.8 °F 34% 29.80 in 10.0 mi West 23.0 mph 33.4 mph N/A   Scattered Clouds
4:35 PM 42.8 °F 33.1 °F 15.8 °F 34% 29.81 in 10.0 mi West 25.3 mph 35.7 mph N/A   Unknown
4:55 PM 39.2 °F 26.8 °F 8.6 °F 28% 29.80 in 10.0 mi West 33.4 mph 58.7 mph N/A   Clear
5:15 PM 39.2 °F 27.8 °F 10.4 °F 31% 29.80 in 10.0 mi West 27.6 mph 46.0 mph N/A   Clear
5:35 PM 39.2 °F 28.3 °F 8.6 °F 28% 29.81 in 10.0 mi West 25.3 mph 36.8 mph N/A   Clear
5:55 PM 39.2 °F 27.0 °F 8.6 °F 28% 29.83 in 10.0 mi West 32.2 mph 46.0 mph N/A   Clear
6:15 PM 39.2 °F 28.0 °F 6.8 °F 26% 29.83 in 10.0 mi West 26.5 mph 40.3 mph N/A   Clear
6:35 PM 39.2 °F 27.0 °F 5.0 °F 24% 29.83 in 10.0 mi West 32.2 mph 47.2 mph N/A   Clear
6:55 PM 37.4 °F 25.6 °F 6.8 °F 28% 29.84 in 10.0 mi West 26.5 mph 39.1 mph N/A   Clear
7:15 PM 37.4 °F 27.5 °F 5.0 °F 26% 29.86 in 10.0 mi West 18.4 mph 33.4 mph N/A   Clear
7:35 PM 35.6 °F 25.2 °F 5.0 °F 28% 29.87 in 10.0 mi West 18.4 mph 32.2 mph N/A   Clear
7:55 PM 35.6 °F 24.5 °F 3.2 °F 26% 29.88 in 10.0 mi WNW 20.7 mph 38.0 mph N/A   Clear
8:15 PM 33.8 °F 19.9 °F 3.2 °F 28% 29.86 in 10.0 mi West 31.1 mph 40.3 mph N/A   Clear
8:55 PM 32.0 °F 18.9 °F 3.2 °F 30% 29.89 in 10.0 mi West 24.2 mph 38.0 mph N/A   Clear
9:35 PM 30.2 °F 17.1 °F 5.0 °F 34% 29.91 in 10.0 mi West 21.9 mph 34.5 mph N/A   Clear
9:55 PM 30.2 °F 18.5 °F 5.0 °F 34% 29.91 in 10.0 mi West 17.3 mph 29.9 mph N/A   Clear
10:15 PM 30.2 °F 16.8 °F 5.0 °F 34% 29.91 in 10.0 mi West 23.0 mph 32.2 mph N/A   Clear
10:35 PM 30.2 °F 17.4 °F 3.2 °F 32% 29.91 in 10.0 mi West 20.7 mph 34.5 mph N/A   Clear
10:55 PM 30.2 °F 17.4 °F 3.2 °F 32% 29.91 in 10.0 mi West 20.7 mph 33.4 mph N/A   Clear
11:15 PM 30.2 °F 16.5 °F 3.2 °F 32% 29.91 in 10.0 mi West 24.2 mph 32.2 mph N/A   Clear
11:35 PM 28.4 °F 15.8 °F 3.2 °F 34% 29.92 in 10.0 mi West 18.4 mph 33.4 mph N/A   Clear
11:55 PM 28.4 °F 16.6 °F 5.0 °F 37% 29.91 in 10.0 mi West 16.1 mph 33.4 mph N/A   Clear